DELTA 1 DEB, 21276

Orbit data source: Space-Track

DELTA 1 DEB, 21276 is space debris in SSO originally from a launch on Thu, 12 Jun 1975 UTC launched from the Air Force Western Test Range (AFWTR). Debris objects in space refer to the collection of defunct objects orbiting the Earth. Examples of debris include non-operational satellites, rocket bodies, and fragments generated from explosions, collisions, or faulty payload assembly.

Loading next visibility...
Identifier
21276, 1975-052M
Orbit
SSO
Country
Flag of USUS
Related business
Manufacturer
Unknown
Mission
Spacecraft
Bus & Motor
Unknown
Mass
Unknown
Launch date (UTC)
1975-06-12 (51 years ago)
Launch vehicle
Unknown
Launch site
Air Force Western Test Range (AFWTR)
Object type
Payload
Rocket body
Debris
Shape & HBR
Unknown shape, 1.2 m
Radar Cross Section
Large (>1 m²)

Expand to show TLE details & history
Last TLE update: 11 hours ago

TLE from 11 hours ago
0 DELTA 1 DEB
1 21276U 75052M   26124.67466273  .00000027  00000-0  13869-3 0  9992
2 21276 100.0116  24.8260 0045556 211.4563 202.8083 13.35574662705926
Epoch: 2026-05-04T16:11Z
TLE epoch observation values (Epoch: 2026-05-04T16:11:30.859Z)
Latitude
52.97348°
Longitude
-94.07837°
Altitude
1,165.879 km
Speed
7.26 km/s
True Right ascension
00h 45m 26s
True Declination
52° 49' 01"
Sunlit
Object was in daylight at epoch
Visualization orbit readout
Latitude
Unknown
Longitude
Unknown
Altitude
Unknown
Speed
Unknown
Apparent Right ascension
Unknown
Apparent Declination
Unknown
Sunlit
N/A
Visualization observer readout
Local Sidereal Time
10:37:18
Azimuth
Unknown
Elevation
Unknown
Doppler factor
Unknown
Orbital elements
Apogee altitude
1,157.319 km
Perigee altitude
1,088.973 km
Semi-major axis
7,501.283 km
Eccentricity
0.00456
Inclination
100.0116°
RAAN
24.826°
Arg. of periapsis
211.4563°
True anomaly
202.60699°
Mean anomaly
202.8083°
Eccentric anomaly
202.70754°
Mean motion
3.34072 °/min
Orbital period
107.76 mins
BSTAR
0.00013869
Loading maneuver chart data...
Computing Atmospheric mass density...
Loading historical data...
Loading historical data...
Loading historical data...
Loading historical data...
Loading historical data...
Loading historical data...
Loading historical data...

Documentation

Showing up to 5 results
|